Погода Razgrad

Погода Razgrad : погода сейчас, прогноз погоды и архив. Всё, что Вы хотите узнать о погоде Razgrad!

Поиск расширенной информации на нашем сайте:

Другие новости

Новости СМИ2

Главная страница сайта

Новости сайта

03.07.2017

Напоминаем, что на нашем специализированном сайте Метеоцентр.Азия вы можете получить высокодетализированные автоматические прогнозы погоды по пунктам России, СНГ и мира в авиационном формате (включающие направление и скорость ветра, видимость, явления погоды, количество и форму облачности, нижнюю и верхнюю границу облачности).


Погода Razgrad - сегодня

Время (UTC), дата Ветер
(°,м/с) 
Видим.   Явления Облачность Т
(°С)
Тd
(°С)
f(%) Тe
(°С)
Pmin
(гПа)
dP
(гПа)
Po
(мм)
O2
(г/м3)
Тmin Tmax R s Состояние
почвы
06 12.07.18 250 (З) 20000 м    ясно 
+21.1 +19.6 91 +40  1013.3  0.6  730  268  +16  +22.9       
09 12.07.18 340 (С) 20000 м    8/8 600 м 
[Cu med, cong]
+26.4 +18.5 62 +43  1012.6  730  264  +21  +26.7       
12 12.07.18 320 (СЗ) 20000 м    8/8 600 м 
[Cu med, cong]
+27.5 +18.6 58 +44  1012.2  -0.3  730  263  +21  +28       
15 12.07.18 320 (СЗ) 20000 м    6/6 600 м 
[Cu med, cong]
+28.2 +18.5 56 +44  1011.8  -0.3  730  262  +21  +29.4       
18 12.07.18 290 (З) 20000 м    ясно 
+25.2 +19.4 70 +44  1011  -1.1  729  264  +21  +29.4       
09 13.07.18 290 (З) 20000 м    5/5 600 м 
[Cu med, cong]
+26.1 +21.7 77 +50  1012.2  -0.1  730  263  +22  +26.5       
12 13.07.18 320 (СЗ) 20000 м    5/5 600 м 
[Cu med, cong]
+27.9 +19.9 62 +47  1011.3  -0.6  730  262  +22  +28.5       
15 13.07.18 360 (С) 20000 м  гроза, ливневой дождь  8/8 300 м кучево-дожд. 
[Cb cap]
+23 +22.3 96 +49  1011.2  -0.7  729  265  +22  +29.2       
18 13.07.18 160 (Ю) 20000 м  {гроза, ливн. осадки}  3/0 средняя 
[Ac trans]
+21.5 +18.8 85 +38  1011.6  0.1  729  268    +29.2     
21 13.07.18 200 (Ю) 20000 м    3/0 средняя 
[Ac trans]
+19.5 +18.7 95 +38  1012.7  0.8  730  270  +19  +21.6       
00 14.07.18 тихо ()   20000 м    ясно 
+19.2 +16.8 86 +32  1012.3  -0.5  729  271  +18.5  +21.6       
03 14.07.18 290 (З) 20000 м    4/0 средняя 
[Ac lent]
+17.8 +17.1 96 +32  1012.7  0.2  730  272  +17.1  +21.6       
06 14.07.18 290 (З) 20000 м    4/0 средняя, верхняя 
[Ac lent|Ci sp]
+20.1 +18.4 90 +36  1012.7  0.4  730  270  +17  +21.6       
09 14.07.18 290 (З) 20000 м    4/4 600 м 
[Cu med, cong]
+24.8 +17.7 65 +39  1012.3  0.2  730  266  +20  +25.3       
12 14.07.18 360 (С) 20000 м    9/9 600 м 
[Cu med, cong]
+25.8 +18.2 63 +41  1011.8  -0.4  730  264  +20  +27.2       
15 14.07.18 320 (СЗ) 20000 м    6/3 600 м средняя 
[Cu med, cong|Ac trans]
+26.2 +17.2 58 +40  1010.5  -1.2  729  264  +20  +27.2       
18 14.07.18 290 (З) 20000 м    5/4 600 м верхняя 
[Cu med, cong|Ci sp]
+24 +16.8 64 +37  1010.5  -0.3  729  266  +20  +27.2       
21 14.07.18 290 (З) 20000 м    ясно 
+21.8 +16.4 71 +34  1011.2  0.4  729  268  +21.7  +24.1       
00 15.07.18 290 (З) 20000 м    ясно 
+18.3 +16.8 91 +32  1011.6  -0.1  729  271  +17.8  +24.1       
03 15.07.18 290 (З) 20000 м    ясно 
+16.6 +15.9 96 +29  1011.7  -0.1  729  273  +16.3  +24.1       
06 15.07.18 тихо ()   20000 м    ясно 
+19.9 +17.3 85 +34  1011.5  0.3  729  270  +16  +24.1       
18 16.07.18 270 (З) 20000 м    ясно 
+23.8 +15.8 61 +35  1008.3  -0.1  727  266  +19.1  +28       
21 16.07.18 290 (З) 20000 м    ясно 
+21.6 +15.1 67 +31  1008.5  -0.1  727  268  +21.2  +23.9       
00 17.07.18 270 (З) 20000 м    ясно 
+23.8 +15.8 61 +35  1008.3  -0.1  727  266  +19.1  +28       
03 17.07.18 290 (З) 20000 м    5/0 средняя 
[Ac lent]
+17.8 +15.8 88 +30  1008.8  -0.1  727  271  +16.7  +23.9       
Время (UTC), дата Ветер
(°,м/с) 
Видим.   Явления Облачность Т
(°С)
Тd
(°С)
f(%) Тe
(°С)
Pmin
(гПа)
dP
(гПа)
Po
(мм)
O2
(г/м3)
Тmin Tmax R s Состояние
почвы

Для получения пояснительной информации подведите курсор к названию столбца.

ПОГОДА Razgrad - архив

Всё, что Вы хотите узнать о погоде Razgrad - удобно и подробно!

Выберите нужную дату (начиная с 1 января 2015* года) и нажмите кнопку "Найти".
Будут отображены архивные сводки погоды по пункту Razgrad, начиная с указанной даты.


Отображать данные в формате CSV (для использования в таблицах Excel)


Внимание! Наш архив погоды предназначен исключительно для личного некоммерческого использования в познавательных целях. Если Вам необходимы официальные справки о состоянии погоды (для производственных, юридических, коммерческих и т.п. целей), обращайтесь в органы Росгидромета.

*Примечание: данная дата относится к архиву по метеостанциям СССР (Россия, СНГ, Балтия).
Архив по метеостанциям Зарубежной Европы и Азии (кроме Китая) хранится 10 дней, по другим регионам земного шара (Китай, Африка, Америка, Австралия, Океания) - 1 день.

Razgrad - район местоположения метеостанции


Название, широта, долгота, высота метеостанции:
Razgrad 43.5°ш. 26.5°д. 347 м над ур. моря [Bulgaria]

Дополнительная информация

В oтличие oт бoльшинства пoгoдных сайтoв мы публикуем пoдрoбную метеoинфoрмацию в детальнoм прoфессиoнальнoм фoрмате.

Характеристики температуры и влажнoсти вoздуха измеряются на высoте 2 м в тени вдали oт зданий и деревьев.
Скoрoсть ветра измеряется на высoте 10 м (на урoвне рoста челoвека скoрoсть ветра ниже в 1.5-2 раза). Если метеoстанция нахoдится в гoрoде или в лесу, тo скoрoсть ветра занижена на 2-4 м/с пo сравнению с oткрытым местoм. Скoрoсть ветра над акватoриями крупных рек и oзёр, а также на вершинах хoлмoв на 2-5 м/с выше, чем в oбычных услoвиях.
Атмoсфернoе давление в разных тoчках местнoсти мoжет значительнo oтличаться oт давления на метеoстанции, в зависимoсти oт услoвий рельефа (при пoдъёме на 10 м давление пoнижается примернo на 1 мм рт.ст.).